Flag for Chile Weather past 2 weeks in Santiago, Chile

Now
55 °F

Sunny.


Feels Like: 55 °F
Forecast: 55 / 82 °F
Wind: 2 mph from North

Location: Pudahuel

Current Time: Mar 2, 2015 at 8:29:30 AM

Latest Report: Mar 2, 2015 at 8:00 AM


Visibility: 10 mi

Pressure: 29.95 "Hg

Humidity: 77%

Dew point: 48 °F

Location of SantiagoLocation

Historic Weather in Santiago — Graph

°F

Santiago temperature yesterday

Maximum temperature yesterday: 84 °F (at 5:00 PM)
Minimum temperature yesterday: 54 °F (at 8:00 AM)
Average temperature yesterday: 69 °F

Past Weeks' High & Low Weather Summary

 TemperatureHumidityPressure
High90 °F (Feb 17, 4:00 PM)100% (Feb 21, 1:00 PM)30.07 "Hg (Feb 21, 1:00 PM)
Low36 °F (Feb 21, 1:00 PM)16% (Feb 17, 4:00 PM)29.06 "Hg (Feb 21, 1:00 PM)
Average67 °F54%29.95 "Hg
* Reported Feb 15 7:00 AM — Mar 2 7:00 AM, Santiago, Weather by CustomWeather, © 2015

Note: Actual official high and low records may vary slightly from our data, if they occured in-between our weather recording intervals... More about our weather records

Advertising

Santiago weather history for previous 24 hours

 ConditionsComfort  
Time TempWeatherWind HumidityBarometerVisibility
7:00 AM
Mon, Mar 2
57 °FPassing clouds.5 mph72%29.92 "HgN/A
6:00 AM59 °FPassing clouds.5 mph68%29.92 "HgN/A
5:00 AM61 °FClear.6 mph63%29.89 "Hg10 mi
4:00 AM61 °FClear.7 mph63%29.92 "Hg10 mi
3:00 AM63 °FClear.7 mph64%29.92 "Hg10 mi
2:00 AM63 °FClear.7 mph64%29.92 "Hg10 mi
1:00 AM64 °FClear.8 mph60%29.95 "Hg10 mi
12:00 AM66 °FClear.10 mph56%29.95 "Hg10 mi
11:00 PM
Sun, Mar 1
68 °FClear.8 mph53%29.95 "Hg10 mi
10:00 PM70 °FClear.9 mph53%29.95 "Hg10 mi
9:00 PM73 °FClear.14 mph44%29.95 "Hg10 mi
8:00 PM77 °FSunny.14 mph39%29.92 "Hg10 mi
7:00 PM81 °FSunny.16 mph37%29.92 "Hg10 mi
6:00 PM82 °FSunny.14 mph35%29.92 "Hg10 mi
5:00 PM84 °FSunny.15 mph31%29.95 "Hg10 mi
4:00 PM82 °FPassing clouds.10 mph32%29.98 "HgN/A
3:00 PM82 °FPassing clouds.10 mph32%29.98 "HgN/A
2:00 PM79 °FPassing clouds.10 mph37%30.01 "HgN/A
1:00 PM75 °FPassing clouds.7 mph44%30.04 "HgN/A
12:00 PM72 °FSunny.2 mph50%30.04 "Hg10 mi
11:00 AM68 °FSunny.2 mph56%30.04 "Hg10 mi
10:00 AM63 °FPassing clouds.3 mph64%30.04 "HgN/A
9:00 AM59 °FSunny.2 mph72%30.07 "Hg5 mi
8:00 AM54 °FPassing clouds.3 mph82%30.07 "HgN/A
Weather by CustomWeather, © 2015

See weather overviewHow to use our weather pages